Station ANMN6 - Field Station, Hudson River Reserve, NY Image indicating link to RSS feed of recent meteorological observations for station ANMN6


Conditions at ANMN6 as of
(9:30 am EDT)
1330 GMT on 05/21/2024:
     

Click on the graph icon in the table below to see a time series plot of the last five days of that observation.

5-day plot - Wind Speed Wind Speed (WSPD): 0.0 kts
5-day plot - Atmospheric Pressure Atmospheric Pressure (PRES):29.97 in
5-day plot - Air Temperature Air Temperature (ATMP): 64.9 °F
5-day plot - Dew Point Dew Point (DEWP): 59.7 °F
5-day plot -  Wind Speed, Wind Gust and Atmospheric Pressure Combined plot of Wind Speed, Gust, and Air Pressure
Previous observations
TIME
(EDT)
5-day plot - Wind Direction
WDIR
 
5-day plot - Wind Speed
WSPD
kts
5-day plot - Wind Gust
GST
kts
5-day plot - Wave Height
WVHT
ft
5-day plot - Dominant Wave Period
DPD
sec
5-day plot - Average Wave Period
APD
sec
5-day plot - Mean Wave Direction
MWD
 
5-day plot - Atmospheric Pressure
PRES
in
5-day plot - Pressure Tendency
PTDY
in
5-day plot - Air Temperature
ATMP
°F
5-day plot - Water Temperature
WTMP
°F
5-day plot - Dew Point
DEWP
°F
5-day plot - Salinity
SAL
psu
5-day plot - Visibility
VIS
nmi
5-day plot - Tide (above MLLW)
TIDE
ft
2024-05-21 09:15 am- 0.0-----29.97- 64.2- 59.4---
2024-05-21 09:00 am- 0.0-----29.97+0.03 63.7- 59.2---
2024-05-21 08:45 am- 0.0-----29.97- 63.0- 58.5---
2024-05-21 08:30 am- 0.0-----29.97- 62.6- 58.5---
2024-05-21 08:15 am- 0.0-----29.97- 62.4- 58.3---
2024-05-21 08:00 am- 0.0-----29.97+0.06 62.4- 57.9---
2024-05-21 07:45 am- 0.0-----29.97- 61.9- 57.7---
2024-05-21 07:30 am- 0.0-----29.97- 61.0- 57.2---
2024-05-21 07:15 am- 0.0-----29.97- 60.4- 56.7---
2024-05-21 07:00 am- 0.0-----29.94+0.03 59.9- 56.5---
2024-05-21 06:45 am- 0.0-----29.94- 59.2- 56.7---
2024-05-21 06:30 am- 0.0-----29.94- 58.8- 56.3---
2024-05-21 06:15 am- 0.0-----29.94- 59.0- 56.5---
2024-05-21 06:00 am- 0.0-----29.94+0.03 59.2- 56.3---
2024-05-21 05:45 am- 0.0-----29.94- 59.2- 56.3---
2024-05-21 05:30 am- 0.0-----29.94- 59.7- 56.3---
2024-05-21 05:15 am- 0.0-----29.94- 60.1- 56.3---
2024-05-21 05:00 am- 0.0-----29.91+0.00 60.4- 56.3---
2024-05-21 04:45 am- 0.0-----29.91- 60.8- 56.7---
2024-05-21 04:30 am- 0.0-----29.91- 61.2- 56.7---
2024-05-21 04:15 am- 0.0-----29.91- 61.7- 56.8---
2024-05-21 04:00 am- 0.0-----29.91+0.00 62.1- 56.7---
2024-05-21 03:45 am- 0.0-----29.94- 62.2- 56.8---
2024-05-21 03:30 am- 0.0-----29.91- 62.6- 56.8---
2024-05-21 03:15 am- 0.0-----29.91- 62.8- 57.0---
2024-05-21 03:00 am- 0.0-----29.91-0.03 63.0- 57.2---
2024-05-21 02:45 am- 0.0-----29.91- 63.1- 57.0---
2024-05-21 02:30 am- 0.0-----29.91- 63.7- 57.2---
2024-05-21 02:15 am- 0.0-----29.91- 64.0- 57.6---
2024-05-21 02:00 am- 0.0-----29.91-0.03 64.4- 57.6---
2024-05-21 01:45 am- 0.0-----29.91- 64.8- 57.6---
2024-05-21 01:30 am- 0.0-----29.91- 65.1- 57.9---
2024-05-21 01:15 am- 0.0-----29.91- 65.5- 57.9---
2024-05-21 01:00 am- 0.0-----29.91-0.03 65.8- 57.9---
2024-05-21 12:45 am- 0.0-----29.91- 66.2- 58.3---
2024-05-21 12:30 am- 0.0-----29.94- 66.6- 58.1---
2024-05-21 12:15 am- 0.0-----29.94- 66.9- 58.1---
2024-05-21 12:00 am- 0.0-----29.94+0.03 67.5- 58.6---
2024-05-20 11:45 pm- 0.0-----29.94- 67.8- 58.6---
2024-05-20 11:30 pm- 0.0-----29.94- 68.4- 58.8---
2024-05-20 11:15 pm- 0.0-----29.94- 68.9- 59.0---
2024-05-20 11:00 pm- 0.0-----29.94+0.03 69.3- 58.8---
2024-05-20 10:45 pm- 0.0-----29.94- 70.0- 59.2---
2024-05-20 10:30 pm- 0.0-----29.94- 70.7- 59.0---
2024-05-20 10:15 pm- 0.0-----29.94- 71.2- 59.2---
2024-05-20 10:00 pm- 0.0-----29.94+0.06 71.8- 58.8---
2024-05-20 09:45 pm- 0.0-----29.94- 72.3- 58.8---
2024-05-20 09:30 pm- 0.0-----29.94- 73.0- 59.0---
2024-05-20 09:15 pm- 0.0-----29.91- 73.8- 59.4---
2024-05-20 09:00 pm- 0.0-----29.91+0.00 74.3- 59.9---
2024-05-20 08:45 pm- 0.0-----29.91- 75.0- 60.1---
2024-05-20 08:30 pm- 0.0-----29.91- 73.2- 61.9---
2024-05-20 08:15 pm- 0.0-----29.91- 73.8- 62.8---
2024-05-20 08:00 pm- 0.0-----29.91+0.00 75.0- 62.8---
2024-05-20 07:45 pm- 0.0-----29.91- 75.9- 62.2---
2024-05-20 07:30 pm- 0.0-----29.91- 76.5- 62.8---
2024-05-20 07:15 pm- 0.0-----29.91- 77.2- 63.0---
2024-05-20 07:00 pm- 0.0-----29.88-0.03 77.4- 63.1---
2024-05-20 06:45 pm- 0.0-----29.91- 78.1- 63.9---
2024-05-20 06:30 pm- 0.0-----29.91- 78.6- 63.0---
2024-05-20 06:15 pm- 0.0-----29.91- 78.3- 63.1---
2024-05-20 06:00 pm- 0.0-----29.91-0.03 79.2- 62.4---
2024-05-20 05:45 pm- 0.0-----29.91- 79.7- 61.0---
2024-05-20 05:30 pm- 0.0-----29.91- 79.9- 59.5---
2024-05-20 05:15 pm- 0.0-----29.91- 79.7- 59.9---
2024-05-20 05:00 pm- 0.0-----29.91-0.06 79.5- 60.8---
2024-05-20 04:45 pm- 0.0-----29.91- 79.5- 61.9---
2024-05-20 04:30 pm- 0.0-----29.91- 79.2- 63.0---
2024-05-20 04:15 pm- 0.0-----29.91- 79.2- 62.4---
2024-05-20 04:00 pm- 0.0-----29.91-0.06 79.2- 60.4---
2024-05-20 03:45 pm- 0.0-----29.94- 78.4- 61.3---
2024-05-20 03:30 pm- 0.0-----29.94- 77.7- 61.7---
2024-05-20 03:15 pm- 0.0-----29.94- 77.4- 61.7---
2024-05-20 03:00 pm- 0.0-----29.94- 77.7- 61.7---
2024-05-20 02:45 pm- 0.0-----29.94- 76.8- 60.8---
2024-05-20 02:30 pm- 0.0-----29.94- 76.1- 61.5---
2024-05-20 02:15 pm- 0.0-----29.94- 75.9- 59.9---
2024-05-20 02:00 pm- 0.0-----29.97- 74.8- 59.9---
2024-05-20 01:45 pm- 0.0-----29.97- 73.9- 59.9---
2024-05-20 01:30 pm- 0.0-----29.97- 73.4- 59.9---
2024-05-20 01:15 pm- 0.0-----29.97- 72.9- 59.4---
2024-05-20 01:00 pm- 0.0-----29.97- 72.1- 59.9---
2024-05-20 12:45 pm- 0.0-----30.00- 71.6- 59.0---